Location: Angwan Shehu
(11.2514°N, 7.4613°E)
Time: 07:06:11
(UTC+00:00)

SR - Pass Details

Date: 23 April 2021
Orbit: 573 x 882 km, 66.7° (Epoch: 12 May)

Event Time Altitude Azimuth Distance (km) Brightness Sun altitude
Rises 03:55:31 0° 167° (SSE) 3,088 ? -19.6°
Reaches altitude 10° 03:58:27 10° 149° (SSE) 2,231 ? -18.9°
Maximum altitude 04:01:56 18° 106° (ESE) 1,791 ? -18.1°
Drops below altitude 10° 04:05:35 10° 63° (ENE) 2,369 ? -17.2°
Sets 04:08:48 0° 46° (NE) 3,355 ? -16.5°
